Vorticity
nan nan nan nan nan nan nan nan nan nan nan nan nan nan nan nan nan nan nan nan nan nan
nan 8 8 7 9 8 8 7 7 8 8 8 8 8 9 9 8 8 8 10 9 nan
nan 7 8 7 7 8 8 8 7 8 8 8 8 8 10 8 8 9 9 7 8 nan
nan 7 8 7 7 8 8 8 8 7 8 7 8 9 8 8 9 9 8 8 8 nan
nan 7 7 8 8 8 8 8 8 8 8 8 8 8 9 9 10 8 9 9 9 nan
nan 7 8 8 8 8 8 8 8 8 8 9 9 9 9 10 9 9 10 10 9 nan
nan 7 8 8 8 8 8 8 8 8 9 10 9 10 11 9 9 10 10 10 10 nan
nan 8 8 8 8 8 9 8 8 9 10 10 12 7 6 8 9 10 10 11 11 nan
nan 8 8 8 8 8 8 9 10 10 10 11 6 2 7 10 12 10 11 11 11 nan
nan 8 8 8 8 8 9 10 10 10 10 10 6 6 10 13 14 12 10 10 10 nan
nan 8 8 8 8 9 10 10 11 10 9 11 7 6 10 16 14 11 10 10 10 nan
nan 8 8 8 9 10 10 10 10 9 9 9 7 8 11 14 15 10 11 10 9 nan
nan 8 8 9 9 10 10 10 9 10 9 10 9 10 10 13 14 10 11 10 7 nan
nan nan nan nan nan nan nan nan nan nan nan nan nan nan nan nan nan nan nan nan nan nan
CAPE
0 0 0 0 0 0 0 0 0 0 0 0 0 0 0 0 0 0 0 0 0 0
0 0 0 0 0 0 0 0 0 0 0 0 0 0 0 0 0 0 0 0 0 0
0 0 0 0 0 0 0 0 0 0 0 0 0 0 0 0 0 0 0 0 0 0
0 0 0 0 0 0 0 0 0 0 0 0 0 0 0 0 0 0 0 0 0 0
0 0 0 0 0 0 0 0 0 0 0 0 0 0 0 0 0 0 0 0 0 0
0 0 0 0 0 0 0 0 0 0 0 0 0 0 0 0 0 0 0 0 0 0
0 0 0 0 0 0 0 0 0 0 0 0 0 0 0 0 0 0 0 0 0 0
0 0 0 0 0 0 0 0 0 0 0 0 0 0 0 0 0 0 0 0 0 0
0 0 0 0 0 0 0 0 0 0 0 0 0 0 0 0 0 0 0 0 1 1
0 0 0 0 0 0 0 0 0 0 0 0 0 0 0 0 0 2 2 2 2 2
0 0 0 0 0 0 0 0 0 0 0 0 0 0 0 1 3 3 4 2 5 6
0 0 0 0 0 0 0 0 0 0 0 0 0 0 0 3 5 4 2 6 9 13
0 0 0 0 0 0 0 0 0 0 0 0 0 0 1 6 10 9 9 11 17 25
0 0 0 0 0 0 0 0 0 0 0 0 0 0 2 8 10 17 20 31 27 25